Altus, OK

12:39 AM CST on November 23, 2017 (GMT -0600)
Altus Municipal

Weather History for KAXS - November, 2013

Change the Weather History Date:

Wednesday, November 6, 2013

  Actual Average (KLTS) Record (KLTS)
Temperature  
Mean Temperature 49 °F -  
Max Temperature 57 °F 62 °F 80 °F (2001)
Min Temperature 41 °F 41 °F 33 °F (1997)
Degree Days  
Heating Degree Days 16    
Moisture  
Dew Point 35 °F    
Average Humidity 63    
Maximum Humidity 78    
Minimum Humidity 38    
Precipitation  
Precipitation 0.00 in - - ()
Sea Level Pressure  
Sea Level Pressure 30.30 in    
Wind  
Wind Speed 14 mph (NNE)    
Max Wind Speed 23 mph    
Max Gust Speed 32 mph    
Visibility 10 miles    
Events      
Averages and records for this station are not official NWS values.
T = Trace of Precipitation, MM = Missing Value Source: NWS Daily Summary

Daily Weather History Graph

Daily Weather History Graph

Search for Another Location

Airport or City:

Trip Planner

Search our weather history database for the weather conditions in past years. The results will help you decide how hot, cold, wet, or windy it might be!

Date:

Astronomy

Nov. 06, 2013 Rise Set
Actual Time 7:02 AM CST 5:38 PM CST
Civil Twilight 6:36 AM CST 6:05 PM CST
Nautical Twilight 6:06 AM CST 6:35 PM CST
Astronomical Twilight 5:36 AM CST 7:04 PM CST
Moon 10:15 AM CST (11/6) 8:47 PM CST (11/6)
Length of Visible Light 11h 28m
Length of Day
10h 35m
Waxing Crescent, 14% of the Moon is Illuminated
Nov 6
Waxing Crescent
Nov 9
First Quarter
Nov 17
Full
Nov 25
Last Quarter
Dec 2
New

Hourly Weather History & Observations

Time (CST) Temp. Windchill Dew Point Humidity Pressure Visibility Wind Dir Wind Speed Gust Speed Precip Events Conditions
12:15 AM 49.6 °F - 41.4 °F 73% 30.10 in 10.0 mi North 23.0 mph - N/A   Overcast
12:35 AM 49.5 °F - 40.5 °F 71% 30.12 in 10.0 mi North 23.0 mph 27.6 mph N/A   Overcast
12:55 AM 48.4 °F - 38.8 °F 70% 30.11 in 10.0 mi North 20.7 mph 32.2 mph N/A   Mostly Cloudy
1:15 AM 47.3 °F - 38.7 °F 72% 30.12 in 10.0 mi North 18.4 mph - N/A   Scattered Clouds
1:35 AM 46.4 °F 40.1 °F 38.8 °F 75% 30.12 in 10.0 mi North 15.0 mph - N/A   Clear
1:55 AM 45.9 °F 38.0 °F 38.1 °F 74% 30.13 in 10.0 mi North 20.7 mph 27.6 mph N/A   Clear
2:15 AM 45.3 °F 39.0 °F 37.8 °F 75% 30.14 in 10.0 mi North 13.8 mph 17.3 mph N/A   Clear
2:35 AM 45.0 °F 37.1 °F 37.4 °F 75% 30.14 in 10.0 mi North 19.6 mph 25.3 mph N/A   Clear
2:55 AM 44.6 °F 36.9 °F 36.9 °F 74% 30.15 in 10.0 mi North 18.4 mph 25.3 mph N/A   Clear
3:15 AM 44.2 °F 37.0 °F 36.7 °F 75% 30.16 in 10.0 mi North 16.1 mph - N/A   Clear
3:35 AM 44.2 °F 37.3 °F 36.7 °F 75% 30.17 in 10.0 mi North 15.0 mph 20.7 mph N/A   Clear
3:55 AM 44.6 °F 36.9 °F 36.3 °F 73% 30.17 in 10.0 mi North 18.4 mph - N/A   Clear
4:15 AM 44.1 °F 37.1 °F 36.1 °F 74% 30.18 in 10.0 mi North 15.0 mph 21.9 mph N/A   Clear
4:35 AM 43.2 °F 37.4 °F 36.7 °F 78% 30.19 in 10.0 mi North 10.4 mph - N/A   Clear
4:55 AM 43.5 °F 37.5 °F 36.3 °F 76% 30.20 in 10.0 mi NNW 11.5 mph 17.3 mph N/A   Clear
5:15 AM 43.3 °F 36.8 °F 36.5 °F 77% 30.22 in 10.0 mi NNW 12.7 mph - N/A   Clear
5:35 AM 43.2 °F 37.4 °F 35.8 °F 75% 30.23 in 10.0 mi NNW 10.4 mph - N/A   Clear
5:55 AM 43.0 °F 36.8 °F 35.8 °F 76% 30.25 in 10.0 mi NNW 11.5 mph - N/A   Clear
6:15 AM 43.0 °F 36.4 °F 35.6 °F 75% 30.26 in 10.0 mi NNW 12.7 mph - N/A   Clear
6:35 AM 43.2 °F 36.2 °F 35.8 °F 75% 30.25 in 10.0 mi North 13.8 mph - N/A   Clear
6:55 AM 43.0 °F 38.2 °F 35.6 °F 75% 30.28 in 10.0 mi NNW 8.1 mph - N/A   Clear
7:15 AM 42.8 °F 37.0 °F 35.4 °F 75% 30.29 in 10.0 mi North 10.4 mph - N/A   Clear
7:35 AM 42.8 °F 35.8 °F 35.1 °F 74% 30.29 in 10.0 mi North 13.8 mph - N/A   Clear
7:55 AM 42.8 °F 36.6 °F 35.2 °F 75% 30.30 in 10.0 mi North 11.5 mph - N/A   Clear
8:15 AM 43.0 °F 36.8 °F 35.2 °F 74% 30.31 in 10.0 mi North 11.5 mph - N/A   Clear
8:35 AM 42.4 °F 36.1 °F 34.9 °F 75% 30.33 in 10.0 mi North 11.5 mph - N/A   Clear
8:55 AM 44.4 °F 37.9 °F 35.1 °F 70% 30.33 in 10.0 mi North 13.8 mph - N/A   Clear
9:15 AM 44.8 °F 37.7 °F 34.9 °F 68% 30.34 in 10.0 mi North 16.1 mph - N/A   Clear
9:35 AM 45.5 °F 38.1 °F 34.5 °F 65% 30.34 in 10.0 mi North 18.4 mph - N/A   Clear
9:55 AM 46.0 °F 39.0 °F 35.2 °F 66% 30.34 in 10.0 mi North 17.3 mph 21.9 mph N/A   Clear
10:15 AM 47.3 °F - 35.1 °F 62% 30.35 in 10.0 mi North 13.8 mph - N/A   Clear
10:35 AM 48.4 °F - 35.6 °F 61% 30.35 in 10.0 mi North 12.7 mph - N/A   Clear
10:55 AM 49.3 °F - 35.2 °F 58% 30.35 in 10.0 mi North 10.4 mph - N/A   Clear
11:15 AM 50.0 °F - 35.2 °F 57% 30.35 in 10.0 mi North 10.4 mph - N/A   Clear
11:35 AM 50.9 °F - 35.6 °F 56% 30.34 in 10.0 mi North 11.5 mph 17.3 mph N/A   Clear
11:55 AM 51.4 °F - 35.4 °F 54% 30.34 in 10.0 mi NNE 11.5 mph - N/A   Clear
12:15 PM 52.7 °F - 36.0 °F 53% 30.34 in 10.0 mi NNE 9.2 mph - N/A   Clear
12:35 PM 53.4 °F - 35.4 °F 51% 30.34 in 10.0 mi North 11.5 mph - N/A   Clear
12:55 PM 53.8 °F - 35.8 °F 51% 30.33 in 10.0 mi North 10.4 mph - N/A   Clear
1:15 PM 54.9 °F - 34.3 °F 46% 30.33 in 10.0 mi North 8.1 mph - N/A   Clear
1:35 PM 55.6 °F - 33.8 °F 44% 30.32 in 10.0 mi NNW 11.5 mph - N/A   Clear
1:55 PM 56.1 °F - 33.4 °F 42% 30.32 in 10.0 mi North 9.2 mph - N/A   Clear
2:15 PM 56.3 °F - 33.1 °F 41% 30.31 in 10.0 mi NNE 8.1 mph - N/A   Clear
2:35 PM 56.5 °F - 33.4 °F 42% 30.31 in 10.0 mi North 3.5 mph - N/A   Clear
2:55 PM 57.0 °F - 32.4 °F 39% 30.32 in 10.0 mi NE 5.8 mph - N/A   Clear
3:15 PM 57.4 °F - 32.4 °F 39% 30.32 in 10.0 mi North 8.1 mph - N/A   Clear
3:35 PM 57.2 °F - 31.8 °F 38% 30.32 in 10.0 mi North 6.9 mph - N/A   Clear
3:55 PM 57.4 °F - 31.6 °F 38% 30.33 in 10.0 mi North 6.9 mph - N/A   Clear
4:15 PM 57.2 °F - 31.5 °F 38% 30.33 in 10.0 mi NNE 5.8 mph - N/A   Clear
4:35 PM 57.0 °F - 31.8 °F 38% 30.33 in 10.0 mi NNE 5.8 mph - N/A   Clear
4:55 PM 56.5 °F - 31.6 °F 39% 30.32 in 7.0 mi NE 4.6 mph - N/A   Clear
5:15 PM 55.8 °F - 33.1 °F 42% 30.33 in 10.0 mi East 4.6 mph - N/A   Clear
5:35 PM 54.0 °F - 34.2 °F 47% 30.33 in 10.0 mi East 4.6 mph - N/A   Clear
5:55 PM 51.6 °F - 36.1 °F 56% 30.33 in 10.0 mi ESE 4.6 mph - N/A   Clear
6:15 PM 50.0 °F - 36.5 °F 60% 30.34 in 10.0 mi ESE 5.8 mph - N/A   Clear
6:35 PM 49.1 °F - 36.5 °F 62% 30.35 in 10.0 mi ESE 5.8 mph - N/A   Clear
6:55 PM 48.2 °F - 36.7 °F 64% 30.35 in 10.0 mi ESE 4.6 mph - N/A   Clear
7:15 PM 47.3 °F - 36.0 °F 65% 30.35 in 10.0 mi ESE 5.8 mph - N/A   Clear
7:35 PM 46.6 °F - 35.6 °F 66% 30.36 in 10.0 mi ESE 5.8 mph - N/A   Clear
7:55 PM 46.0 °F 43.1 °F 35.2 °F 66% 30.36 in 10.0 mi ESE 5.8 mph - N/A   Clear
8:15 PM 45.9 °F 43.6 °F 34.9 °F 66% 30.36 in 10.0 mi ESE 4.6 mph - N/A   Clear
8:35 PM 44.8 °F 41.6 °F 34.5 °F 67% 30.38 in 10.0 mi ESE 5.8 mph - N/A   Clear
8:55 PM 44.8 °F 42.4 °F 34.2 °F 66% 30.38 in 10.0 mi ESE 4.6 mph - N/A   Clear
9:15 PM 44.4 °F 42.0 °F 33.3 °F 65% 30.38 in 10.0 mi ESE 4.6 mph - N/A   Clear
9:35 PM 45.0 °F 43.5 °F 32.9 °F 63% 30.39 in 10.0 mi SE 3.5 mph - N/A   Clear
9:55 PM 44.2 °F 42.7 °F 32.5 °F 63% 30.39 in 10.0 mi ESE 3.5 mph - N/A   Clear
10:15 PM 44.2 °F 41.8 °F 32.5 °F 63% 30.39 in 10.0 mi SE 4.6 mph - N/A   Clear
10:35 PM 43.3 °F 40.7 °F 32.5 °F 66% 30.40 in 10.0 mi ESE 4.6 mph - N/A   Clear
10:55 PM 42.3 °F 39.4 °F 32.2 °F 67% 30.40 in 10.0 mi ESE 4.6 mph - N/A   Clear
11:15 PM 42.6 °F 39.9 °F 32.2 °F 67% 30.41 in 10.0 mi ESE 4.6 mph - N/A   Clear
11:35 PM 41.0 °F - 32.0 °F 70% 30.41 in 10.0 mi Calm Calm - N/A   Clear
11:55 PM 41.2 °F 39.2 °F 32.0 °F 70% 30.41 in 10.0 mi ESE 3.5 mph - N/A   Clear